User: anonymous   Login
Location: Unspecified
(0.0000°N, 0.0000°E)
Time: 04:44:58
(UTC+00:00)
Language:

Tiros 4 - Orbit

View from above orbital plane
View from above orbital plane
View from above satellite
View from above satellite

Ground track
Ground track

The orbit data is extracted from the following two-line orbital elements,

1   226U 62002A   18020.58000323 -.00000153 +00000-0 +54575-5 0  9993
2   226 048.2949 201.1333 0078397 223.5555 135.9136 14.45608966924284
Epoch (UTC): 20 January 2018 13:55:12
Eccentricity: 0.0078397
inclination: 48.2949°
perigee height: 684 km
apogee height: 796 km
right ascension of ascending node: 201.1333°
argument of perigee: 223.5555°
revolutions per day: 14.45608966
mean anomaly at epoch: 135.9136°
orbit number at epoch: 92428

The dashed part of the orbit path shows where the satellite is in the earth's shadow,  

DLR